Location: Squamish
(49.7000°N, 123.1500°W)
Time: 23:42:29
(UTC-08:00)

Daily predictions for brighter satellites

Satellite Brightness Start Highest point End
(mag) Time Altitude Azimuth Time Altitude Azimuth Time Altitude Azimuth
BREEZE-M DEB (TANK) 2.4 18:16:37 10° W 18:18:44 47° SSW 18:22:17 10° ESE
Meteor 1-25 Rocket 4.5 18:16:23 10° SSW 18:22:03 81° WNW 18:27:50 10° N
Cosmos 1340 2.7 18:18:32 10° N 18:22:22 86° ENE 18:26:09 10° SSE
SL-16 R/B 3.8 18:21:01 10° N 18:24:49 18° NE 18:28:36 10° ENE
COSMO-SKYMED 1 2.5 18:21:13 10° NNE 18:25:36 73° ESE 18:29:55 10° S
Cosmos 1602 4.0 18:24:42 10° SSE 18:28:27 47° E 18:32:14 10° NNE
BREEZE-M DEB (TANK) 3.0 18:26:00 10° W 18:28:34 66° SSW 18:34:20 10° ESE
ATLAS CENTAUR R/B 3.9 18:33:19 10° NW 18:35:18 13° NNW 18:37:13 10° N
Cosmos 407 Rocket 4.0 18:32:50 10° SW 18:38:04 65° WNW 18:43:25 10° NNE
Resurs 01 Rocket 2.1 18:36:14 10° SE 18:40:17 37° ENE 18:44:22 10° N
Cosmos 1741 Rocket 4.4 18:35:39 10° S 18:40:30 41° ESE 18:45:24 10° NE
Meteor 1-28 Rocket 3.3 18:39:43 10° NNE 18:43:34 86° W 18:47:23 10° SSW
Cosmos 1833 4.2 18:38:55 10° SSW 18:44:36 82° ESE 18:50:16 10° NNE
Cosmos 676 Rocket 4.2 18:41:16 10° SSW 18:46:28 76° WNW 18:51:45 10° NNE
NOAA 12 4.3 18:42:26 10° SSE 18:47:46 82° WSW 18:53:09 10° NNW
Cosmos 2333 Rocket 2.5 18:42:44 10° NNW 18:48:20 49° NE 18:53:54 10° SE
Cosmos 1140 Rocket 3.4 18:43:40 10° SSW 18:48:47 75° ESE 18:53:59 10° NNE
Cosmos 1980 4.2 18:43:47 10° NNW 18:49:08 41° NE 18:54:28 10° ESE
Cosmos 614 Rocket 4.0 18:44:27 10° S 18:49:26 59° ESE 18:54:26 10° NNE
Cosmos 1633 2.6 18:45:52 10° S 18:49:33 90° SE 18:53:16 10° N
Resurs 1-3 4.1 18:46:26 10° SE 18:50:30 40° ENE 18:54:38 10° N
Meteor 1-11 Rocket 3.8 18:45:00 10° S 18:50:47 70° E 18:56:44 10° NNE
ASTRO F (AKARI) 4.4 18:49:11 10° NNE 18:52:46 89° ESE 18:56:08 10° SSW
Cosmos 1570 Rocket 4.2 18:49:46 10° NNW 18:55:00 76° WSW 19:00:13 10° SSE
FENGYUN 3A 3.6 18:50:22 10° SSE 18:55:44 68° ENE 19:01:09 10° N
Cosmos 1818 4.1 18:51:01 10° SW 18:56:25 61° NW 19:01:52 10° NE
Cosmos 1238 Rocket 3.2 18:53:50 10° NNW 18:56:43 47° W 18:59:36 10° S
Cosmos 1892 Rocket 4.1 18:53:40 10° N 18:57:42 35° ENE 19:01:42 10° SE
Okean 1 Rocket 3.0 18:53:52 10° S 18:58:20 71° E 19:02:49 10° NNE
Cosmos 1025 Rocket 3.0 18:55:27 10° N 18:59:50 66° ENE 19:04:13 10° SSE
Cosmos 468 Rocket 4.1 18:57:41 10° NNW 19:02:51 55° ENE 19:08:02 10° SE
USA 186 2.9 19:03:15 21° ENE 19:03:15 21° ENE 19:05:25 10° NNE
Cosmos 2181 Rocket 4.4 18:57:27 10° NNW 19:03:40 68° W 19:09:57 10° S
SL-19 R/B 4.4 19:04:25 10° SSE 19:10:13 79° ENE 19:16:30 10° NNW
Spot 2 Rocket 3.4 19:07:57 10° SSE 19:13:00 74° ENE 19:18:06 10° NNW
USA 229 DEB 4.1 19:06:06 10° NW 19:13:12 73° SW 19:20:24 10° SSE
USA 229 4.0 19:06:12 10° NW 19:13:17 73° SW 19:20:30 10° SSE
Cosmos 2074 Rocket 4.0 19:11:00 10° S 19:17:11 67° E 19:23:27 10° NNE
Meteor 1-5 Rocket 4.3 19:12:46 10° S 19:18:38 63° E 19:24:24 10° NNE
Cosmos 405 Rocket 2.8 19:15:17 10° N 19:19:21 60° ENE 19:23:19 10° SSE
SL-08 ROCKET BODY 4.4 19:13:19 10° S 19:19:29 77° E 19:25:42 10° NNE
Cosmos 332 Rocket 4.4 19:16:08 10° N 19:20:43 37° ENE 19:22:54 25° ESE
Spot 1 4.1 19:17:28 11° SE 19:21:13 53° ENE 19:25:22 10° N
FengYun 1-2 T 4.4 19:16:49 10° SSE 19:22:18 79° WSW 19:27:52 10° NNW
NOSS 8 (H) 4.4 19:18:56 10° SW 19:22:19 79° SE 19:25:03 18° NE
SJ-6B 4.0 19:18:45 10° S 19:22:32 44° W 19:26:16 10° NNW
HJ-1C 3.9 19:20:07 10° S 19:23:27 60° WSW 19:26:49 10° NNW
Cosmos 2184 Rocket 3.9 19:17:29 10° S 19:23:44 72° E 19:29:58 10° NNE
Cosmos 1814 Rocket 4.0 19:18:55 10° NNW 19:24:04 62° ENE 19:28:10 16° SE
Cosmos 1544 Rocket 4.0 19:21:44 10° SSE 19:25:43 37° E 19:29:44 10° NNE
NOSS 3-1 (A) 4.0 19:18:30 10° NW 19:25:46 65° NE 19:31:36 20° ESE
ERS-1 Rocket 4.0 19:25:09 24° ENE 19:26:04 25° ENE 19:30:07 10° N
USA 215 3.7 19:20:32 12° ENE 19:26:24 56° NNW 19:32:45 10° W
Meteor 2-13 Rocket 4.5 19:21:36 10° SSE 19:27:27 53° E 19:33:23 10° NNE
Aureole 2 Rocket 3.8 19:25:11 10° N 19:27:35 23° NE 19:27:35 23° NE
H-2A R/B 2.7 19:24:33 10° SSE 19:28:17 86° WSW 19:32:06 10° NNW
CZ-2D R/B 3.1 19:25:27 10° SSE 19:29:15 75° ENE 19:33:06 10° N
Cosmos 1850 Rocket 4.1 19:24:02 10° SSW 19:29:22 81° WNW 19:34:46 10° NNE
Envisat 3.5 19:27:13 24° ESE 19:29:36 38° ENE 19:34:18 10° N
Cosmos 371 Rocket 4.0 19:25:55 10° N 19:30:26 36° ENE 19:31:49 30° E
ATLAS 2AS CENTAUR R/B 3.8 19:23:31 10° NW 19:31:02 38° NNE 19:35:32 22° ENE
ALOS 2.9 19:27:15 10° S 19:31:51 58° W 19:36:29 10° NNW
USA 32 4.5 19:27:27 10° N 19:32:22 39° ENE 19:34:42 26° SE
Cosmos 2237 Rocket 2.1 19:28:25 10° NNW 19:34:09 74° ENE 19:38:22 19° SE
Cosmos 1602 Rocket 4.3 19:32:12 10° N 19:36:12 32° ENE 19:36:16 32° ENE
Nadezhda 3 Rocket 3.9 19:30:34 10° N 19:36:42 64° ENE 19:42:49 10° SSE
NOSS 0 Rocket 4.0 19:30:57 10° NNW 19:37:09 82° WSW 19:43:17 10° SSE
COSMOS 2428 4.0 19:33:07 10° NW 19:38:25 41° WSW 19:43:41 10° S
Okean 2 3.6 19:34:33 10° NNW 19:38:44 72° W 19:42:53 10° S
Cosmos 1066 Rocket 4.4 19:33:40 10° N 19:39:10 49° ENE 19:42:02 26° SE
Cosmos 2297 Rocket 3.4 19:35:46 10° SSE 19:38:27 22° SE 19:38:27 22° SE
Cosmos 1626 Rocket 4.1 19:36:59 10° N 19:41:09 37° ENE 19:41:18 37° ENE
Abrixas rocket 3.0 19:39:45 10° SW 19:42:42 38° S 19:42:42 38° S
NOSS 3-1 (C) 4.0 19:36:17 10° NW 19:43:41 89° NE 19:49:43 20° SE
Helios 1B rocket 2.5 19:41:42 10° NNE 19:45:46 50° E 19:49:49 10° S
Cosmos 2219 Rocket 2.7 19:40:37 10° NW 19:46:08 60° WSW 19:51:38 10° S
Meteor 1-12 Rocket 4.5 19:42:04 10° SSE 19:47:45 49° E 19:53:24 10° NNE
Cosmos 1441 Rocket 3.2 19:44:16 10° N 19:48:13 59° ENE 19:48:42 54° ESE
Helios 1A 2.9 19:46:45 16° SSE 19:50:02 84° WSW 19:54:14 10° NNW
Gbstr 26 Del rocket 2.5 19:46:33 10° WSW 19:50:19 85° SSE 19:50:50 64° E
Cosmos 2341 Rocket 4.2 19:46:10 10° SSE 19:52:16 50° E 19:58:25 10° NNE
Cosmos 2154 Rocket 3.9 19:46:58 10° S 19:53:14 66° E 19:59:31 10° NNE
Cosmos 1536 4.4 19:49:58 10° SW 19:53:39 36° WNW 19:57:22 10° N
SAR-Lupe-1 4.3 19:53:25 26° S 19:55:17 66° WSW 19:58:53 10° NNW
SAR-Lupe-4 4.2 19:53:33 17° S 19:56:11 55° WSW 19:59:44 10° NNW
Cosmos 1939 Rocket 3.2 19:56:55 46° NE 19:56:55 46° NE 20:00:15 10° N
Cosmos 1486 Rocket 4.3 19:53:05 10° S 20:03:57 - NNE 19:57:38 43° ESE
Cosmos 1437 3.1 19:55:01 10° NNW 19:58:17 63° W 19:58:48 53° SSW
Cosmos 2219 3.6 19:53:23 10° SW 19:59:06 66° WNW 20:04:50 10° NNE
Cosmos 2227 Rocket 2.3 19:55:19 10° S 20:00:44 49° ESE 20:02:44 34° ENE
Cosmos 1455 Rocket 2.9 19:58:46 10° S 20:03:08 73° E 20:07:30 10° NNE
CZ-4B DEB 3.6 20:04:34 44° NNW 20:04:34 44° NNW 20:06:51 10° NNW
Cosmos 841 Rocket 3.3 20:00:03 10° NNW 20:05:14 79° ENE 20:06:41 48° SE
SL-16 R/B 2.2 20:04:25 10° NNW 20:10:06 65° ENE 20:11:12 53° ESE
H-2A R/B 3.8 20:11:54 19° NE 20:11:54 19° NE 20:14:27 10° N
Cosmos 1763 Rocket 3.6 20:10:36 10° NNW 20:15:44 73° WSW 20:17:39 39° S
ATLAS CENTAUR R/B 3.9 20:15:40 10° N 20:16:06 10° N 20:16:31 10° NNE
Resurs 01 Rocket 3.7 20:13:05 10° SSW 20:16:51 27° W 20:20:38 10° NW
Cosmos 540 Rocket 3.8 20:14:32 10° NNW 20:19:04 48° NE 20:19:04 48° NE
Meteor 2-8 Rocket 4.3 20:14:01 10° N 20:20:07 87° E 20:22:57 34° S
Cosmos 962 Rocket 4.3 20:17:06 10° S 20:23:16 81° E 20:29:26 10° N
Meteor 2-19 Rocket 4.4 20:25:17 59° ESE 20:25:53 62° E 20:31:58 10° NNE
GEOS 3 Rocket 3.5 20:30:37 66° NE 20:31:25 87° SE 20:36:42 10° SW
Cosmos 2333 Rocket 3.7 20:27:18 10° NW 20:32:27 34° WSW 20:37:10 12° SSW
USA 186 4.4 20:34:38 18° WNW 20:34:38 18° WNW 20:36:00 10° NW
Cosmos 836 Rocket 4.4 20:30:35 10° NNW 20:35:51 87° NNE 20:35:51 87° NNE
SPOT 5 3.9 20:43:24 37° NNE 20:43:24 37° NNE 20:46:44 10° N
Cosmos 2082 4.1 20:57:27 10° SW 21:10:44 - NNE 21:02:18 60° WSW
ERS-1 Rocket 3.7 21:05:09 52° WNW 21:05:09 52° WNW 21:09:30 10° NNW
SL-8 Rocket 4.0 21:06:49 79° NW 21:06:49 79° NW 21:13:01 10° N
Envisat 4.4 21:07:25 30° SW 21:08:40 34° W 21:13:17 10° NNW
USA 215 3.8 21:07:52 44° NNE 21:08:52 48° N 21:15:04 10° WNW
ARGOS 4.2 21:17:17 40° NNW 21:17:17 40° NNW 21:20:39 10° NNW
Cosmos 2237 Rocket 4.3 21:13:28 10° NW 21:17:37 21° W 21:20:16 15° SW
ATLAS 2AS CENTAUR R/B 2.9 21:14:58 10° NW 21:23:00 84° NNE 21:23:00 84° NNE
Cosmos 2297 Rocket 4.0 21:18:37 10° SW 21:31:52 - NNE 21:20:30 21° SW
Terra 4.4 21:43:51 14° N 21:43:51 14° N 21:44:33 10° N
Cosmos 2227 Rocket 3.6 21:39:50 10° WSW 21:50:55 - NNE 21:44:55 35° NW
H-2A R/B 4.0 21:52:31 26° NNW 21:52:31 26° NNW 21:54:52 10° NNW
SL-16 R/B 4.1 21:49:16 10° NW 21:53:07 24° W 21:53:07 24° W
